Weather in Mezhozernyy

Russia / Chelyabinsk Oblast     54°08′43″N   59°22′38″E
temp.,
°C
wind,
m/s
gust,
m/s
humid.,
%
clouds,
%
prec.,
mm/h
press.,
hPa
HPBL,
m
13 may, thu
thu1323:00+16nw22374 0.0 102711
02:00+14wnw21485 0.0 102710
05:00+13wnw21555 0.0 102810
08:00+18wnw224568 0.0 1028155
11:00+24nnw11335 0.0 10271436
14:00+26nw11310 0.0 10262277
17:00+26w12305 0.0 10252255
20:00+23sw114031 0.0 102511
14 may, fri
fri1423:00+19n224867 0.0 102615
02:00+16nnw225630 0.0 102711
05:00+15nw11603 0.0 102711
08:00+19w11494 0.0 1027170
11:00+25sw34330 0.0 10271484
14:00+27sw44263 0.0 10262551
17:00+27sw44230 0.0 10252048
20:00+22ssw34395 0.0 102457
15 may, sat
sat1523:00+18wnw22472 0.0 102513
02:00+16wnw22594 0.0 102512
05:00+15wnw116222 0.0 102611
08:00+19w114793 0.0 1026163
11:00+24wsw333481 0.0 1025887
14:00+27wsw33255 0.0 10242000
17:00+28s332539 0.0 10222207
20:00+23wsw693961 0.1 1023236
16 may, sun
sun1623:00+18nw225291 0.3 102311
02:00+16wnw11587 0.0 102311
05:00+15wnw116260 0.0 102311
08:00+20wsw11492 0.0 1024152
11:00+26sw23342 0.0 10221049
14:00+28sw35274 0.0 10213037
17:00+28sw45246 0.0 10193160
20:00+23wnw234074 0.0 101951
17 may, mon
mon1723:00+19wnw22495 0.0 101911
02:00+17wsw225277 0.0 102013
05:00+16wnw22589 0.0 102011
08:00+21wsw23488 0.0 1020179
11:00+26wsw343060 0.0 10192584
14:00+26sw452772 0.0 10171807
17:00+26wnw5730100 0.0 10171422
20:00+22wnw81444100 0.0 1017529